Aeroporto :
LOGIN :

Iscrizione | Disclaimer

   EN    FR    IT 

 










Sommario :    VFR   VFR Marginale   IFR   IFR Intensivo   IFR Molto Intensivo
Visibilità : 
Base nubi : 
>= 8 km
>= 3000ft
5 / 8 km
1000 / 3000 ft
1500m / 5 km
500 / 1000 ft
800 / 1500m
200 / 500 ft
< 800m
< 200 ft
Simboli :   Temporali  Nebbia  Neve Forte  Precipitazioni Forti  Vento > 20 kt
SIGMETs :   Varie  Temporali  Ghiacco  Turbolenza  Onda orograficha  Ceneri Vulcaniche






- Altitudine del aeroporto : 2077 ft
- Codice IATA : FMM


EDJA - Memmingen

ULTIMO METAR :
  • 220150Z AUTO 22011KT 9999 // OVC028/// M02/M05 Q1030

METARs OBSOLETI :
  • 220120Z AUTO 23011KT 9999 // OVC032/// M02/M05 Q1030
  • 220050Z AUTO 23010KT 9999 // OVC032/// M02/M05 Q1030
  • 220020Z AUTO 23011KT 8000 // SCT031/// OVC040/// M02/M05 Q1031
  • 212350Z AUTO 22011KT 9999 // OVC029/// M02/M05 Q1031
  • 212320Z AUTO 22009KT 9999 // OVC031/// M02/M04 Q1031

TAF TAF EDJA
Valido dal 21 a 18 ore il 22 a 03 ore UTC


211700Z 2118/2203 23012KT 9000 BKN030
PROB30
TEMPO 2200/2203 4000 -SN



MetMap, La meteo Aeronautica in un colpo d'occhio ! - Copyright ORBIFLY Dicembre 2007 - Disclaimer

ORBIFLY MET'MAP TEAM :

Programmazione e sviluppo : Alexandra Zaïnal
Concezione : Baudouin d'Aumeries
Aiuto per la programmazione : Marc-Olivier Méhu
Supporto tecnico e logistico : Manuel Goepfert
Aiuto per la traduzione : Arnaldo La Scala

Contatto : metmap@orbifly.com




FONTI E CREDITI :

   NOAA